ROMMA est une association bénévole à but non lucratif. Votre soutien est indispensable : ADHERER à ROMMA ou FAIRE un DON

Miribel-les-Echelles - (38, Isère)

Massif de la Chartreuse (760 m)   Longitude: 05° 41' 54'' E   Latitude: 45° 26' 40'' N Station romma n°22
 

Détail journalier du     <<     >>

Température Precipitation Humidité Pression Vent Dir Rafale Dir. rafale Ensol.
Heure (°C) (mm) (%) (hPa) (km/h) (km/h) (min)
01:00 17.4062100615S44SSE0
02:00 17.1061100613SSO44S0
03:00 16.9059100511S32SE0
04:00 16.8057100611S34SSO0
05:00 16.905510059SE32SSE0
06:00 18.0054100516SSE48SSE0
07:00 18.6053100524SSE58SSE0
08:00 18.2055100417S61SSE0
09:00 17.8059100617SSE64SSE0
10:00 18.7055100520S47SSE0
11:00 18.6055100616S58S0
12:00 19.2053100515S42SSE0
13:00 19.9054100515SO55SSE0
14:00 21.8049100417S72SSE0
15:00 22.4043100320S56SSE60
16:00 22.1045100319S60SSE60
17:00 21.4046100422SSE56S0
18:00 21.1047100420S58S60
19:00 20.5048100520SSE53OSO0
20:00 19.8052100729SSE79S0
21:00 18.7058100819S53SSE0
22:00 16.10.675100916S58OSO0
23:00 14.7279100811SO34SSE0
minuit 13.64.288100915SSE44SO0

Graphique du 20-10-2019

 

Serveur OMMA